Wind_Speed
83 84 86 83 78 74 70 66 61 55 48 48 45 46 40 36 28 23 35 67 85 112 119 123 120 123 120 118 109 105 103 97 87 79 70 58 65 60 59 57 54 53 57
80 84 82 80 76 73 73 73 69 63 52 44 43 40 42 37 28 24 30 61 82 113 120 125 121 123 124 121 113 109 108 105 94 90 86 73 65 66 55 60 56 53 53
80 81 83 83 76 73 73 74 74 72 63 43 37 36 35 37 31 26 25 48 75 109 123 125 122 123 128 122 116 113 108 107 101 99 93 80 74 71 63 61 58 54 52
84 83 82 80 81 79 79 78 76 74 70 49 34 32 32 32 30 26 28 38 68 100 123 126 125 127 130 126 122 117 114 111 110 98 96 90 79 73 73 66 60 56 56
83 83 82 80 80 81 82 81 82 77 71 65 42 29 29 27 29 26 25 32 63 90 119 126 126 128 130 130 127 120 119 114 110 100 99 99 88 79 78 64 59 59 55
86 84 81 82 84 84 85 84 80 80 75 71 49 35 26 27 24 24 23 32 55 74 110 124 128 131 133 133 129 126 123 121 115 109 101 96 96 84 80 67 63 64 58
87 86 84 88 88 89 90 89 86 80 78 71 52 42 32 26 26 23 24 28 44 75 95 122 127 133 135 133 132 130 126 126 120 119 102 103 94 87 87 74 70 68 68
90 89 89 90 92 94 96 92 89 85 77 71 60 46 38 33 31 25 25 28 42 60 77 119 125 135 138 135 133 133 129 121 125 123 110 101 97 94 90 79 76 73 70
95 95 95 95 98 100 98 97 93 86 78 71 58 45 39 41 38 32 29 31 40 53 75 100 130 137 141 140 137 135 133 125 130 129 119 110 105 100 87 82 76 74 74
101 100 102 102 106 107 105 103 97 86 77 67 52 43 38 39 45 39 33 35 40 54 67 86 123 140 144 144 143 140 135 129 128 130 128 121 111 104 93 84 79 77 77
105 105 107 109 110 108 105 102 98 87 73 59 48 40 39 39 44 47 41 39 44 51 65 82 103 131 149 151 149 145 141 138 136 131 129 129 122 107 97 89 84 79 81
109 109 111 111 112 109 105 101 93 83 73 61 52 42 39 38 42 47 47 42 43 54 63 78 94 124 142 154 154 152 149 143 140 138 129 133 134 122 106 94 89 83 80
107 110 114 114 115 110 102 99 91 82 76 64 54 44 40 38 39 42 46 47 47 49 62 74 88 108 132 150 161 160 153 153 146 139 133 137 139 131 118 105 96 88 86
109 109 112 113 114 108 99 93 88 80 74 62 53 44 42 39 39 40 44 48 50 51 55 70 85 101 117 137 158 165 164 161 154 147 138 142 137 137 129 118 104 97 91
114 112 114 114 113 101 95 92 86 75 64 55 51 48 43 40 36 38 44 47 52 54 57 59 80 92 110 129 141 161 170 168 165 155 149 145 137 132 131 120 115 104 98
117 116 119 116 109 98 94 90 79 72 58 53 50 47 42 41 35 37 44 48 50 55 58 64 73 87 97 120 141 151 168 174 170 170 159 155 152 143 135 131 120 110 105
120 118 115 115 104 95 95 84 76 66 57 51 51 46 43 41 37 40 46 49 47 52 58 64 71 80 97 111 127 138 156 171 174 174 172 163 154 146 142 131 128 112 102
126 123 117 110 98 95 88 78 74 62 55 51 49 45 43 42 38 43 50 50 47 54 56 60 69 78 84 102 115 125 141 159 171 177 175 171 157 149 143 136 129 118 109
129 123 113 102 92 87 80 76 73 61 55 49 47 44 38 39 43 50 52 49 50 52 53 60 66 70 79 83 99 116 125 143 163 177 174 173 164 153 149 140 132 127 116
126 117 103 91 85 79 77 76 72 61 55 50 49 43 38 41 46 53 52 47 49 50 53 60 62 62 71 77 88 105 113 129 151 168 174 173 170 158 151 145 140 135 122
114 101 90 84 79 77 79 78 69 61 56 51 50 44 42 45 47 52 50 49 49 48 53 56 57 59 65 72 80 92 109 113 135 162 171 174 171 163 154 144 139 133 126
103 94 90 85 81 79 80 78 67 62 56 52 51 45 45 50 51 52 48 48 46 48 51 50 49 54 59 67 73 82 93 106 119 154 161 176 172 167 154 147 137 131 129
99 94 92 86 85 82 77 72 65 61 56 53 51 47 48 51 52 50 48 46 43 46 46 42 44 48 54 61 67 77 84 95 116 138 157 174 173 168 157 151 145 139 133
100 95 93 90 89 81 74 67 62 60 54 52 49 47 50 52 52 48 47 46 42 42 39 38 41 45 50 54 62 71 79 89 112 129 150 170 173 171 161 155 151 145 139
98 94 94 88 83 76 71 63 60 55 52 52 48 47 51 50 50 47 46 45 40 37 35 35 38 42 45 50 58 65 76 89 107 122 140 164 171 173 163 157 153 143 137
94 92 90 83 77 71 69 61 58 53 50 48 47 49 51 51 46 44 46 38 36 35 32 31 34 38 41 47 55 64 74 90 107 118 136 161 169 173 164 158 151 141 137
Wind_Direction
335 336 337 337 339 341 347 348 347 348 342 337 332 331 338 330 307 268 229 210 205 207 203 201 201 201 200 199 199 198 202 196 197 197 208 205 221 221 223 222 225 227 230
336 337 337 336 338 337 339 341 348 350 345 337 332 324 329 333 316 287 232 212 208 206 203 202 201 202 201 201 198 199 200 197 196 203 209 207 217 220 219 223 222 226 228
334 337 335 334 336 338 339 339 341 347 349 337 327 322 322 325 320 291 253 217 212 207 204 203 201 202 202 200 198 201 200 197 198 207 208 208 218 215 212 223 221 222 225
336 337 332 330 335 339 340 339 339 342 344 339 327 312 311 318 322 299 267 229 213 208 206 204 202 201 204 200 199 201 199 199 202 205 210 208 211 215 215 221 220 219 223
335 337 332 332 335 338 340 338 337 337 339 339 328 307 303 304 311 301 266 240 212 210 206 206 203 203 204 203 199 200 201 200 202 203 209 209 214 214 214 218 218 217 222
334 334 335 336 339 338 339 336 333 333 333 335 323 310 289 290 291 298 270 242 216 211 208 206 204 203 203 205 202 201 200 202 204 204 208 210 215 216 213 218 216 211 212
334 333 335 336 337 337 335 334 332 330 330 332 323 313 290 274 278 276 274 240 225 211 209 209 206 204 205 206 205 203 202 204 205 205 209 212 213 214 211 217 215 213 217
334 333 335 336 336 334 332 332 331 328 327 328 324 312 296 273 265 263 260 250 225 217 211 209 208 206 207 205 207 205 204 206 205 206 208 209 211 211 211 213 216 213 214
332 333 334 334 333 333 330 329 328 329 325 326 319 308 292 280 264 258 243 246 230 221 213 211 208 208 207 207 207 207 206 205 204 207 206 210 211 208 208 210 213 217 215
332 334 333 333 333 332 331 327 326 327 326 324 315 302 291 278 265 258 246 232 237 221 218 213 209 207 208 206 208 209 208 204 206 207 208 210 211 208 206 208 211 214 214
333 334 333 332 332 332 329 326 326 324 325 322 312 298 291 281 264 257 252 238 229 230 219 215 213 209 207 208 209 209 209 209 208 208 208 212 212 210 205 208 208 213 217
332 332 331 330 330 329 327 326 325 324 324 320 312 300 290 279 268 253 257 247 235 227 225 218 216 211 211 208 211 210 210 210 210 209 211 213 213 211 206 208 205 212 215
330 330 329 329 329 328 326 325 323 322 323 317 311 301 289 276 272 256 250 253 244 233 228 224 218 215 214 210 210 212 211 211 211 212 212 211 214 214 210 209 204 208 215
328 327 326 327 326 326 323 323 322 322 321 315 309 300 292 280 276 256 253 254 252 243 232 228 223 218 215 212 211 212 212 211 211 212 211 211 213 214 213 212 208 208 214
326 325 326 325 325 322 320 322 324 323 319 312 308 302 296 284 276 256 257 255 251 247 245 235 224 222 218 216 215 212 213 212 211 210 210 210 213 214 214 211 213 210 213
324 325 325 322 322 319 321 322 324 323 315 309 307 306 297 290 271 261 264 261 258 249 248 243 223 224 223 219 217 215 213 213 213 212 210 211 214 216 216 215 213 210 215
324 323 322 320 322 321 321 323 325 322 314 311 311 308 300 286 277 277 272 269 267 257 254 244 236 229 225 225 222 219 215 212 214 214 212 211 212 215 215 211 214 212 215
324 321 320 319 322 323 322 325 326 320 312 311 311 305 295 287 286 283 280 279 274 266 257 246 240 238 235 224 227 221 217 214 214 215 215 212 211 211 212 212 213 212 213
322 320 320 321 323 323 323 326 325 318 312 310 310 306 298 290 290 288 288 285 280 271 258 252 248 242 238 231 225 224 219 214 213 214 216 214 211 210 212 213 213 214 213
320 319 320 320 322 323 325 326 323 316 311 308 308 306 300 295 296 292 293 289 282 272 262 258 255 247 238 232 225 223 220 214 213 212 214 215 213 211 212 214 215 214 213
319 319 319 320 322 324 325 325 322 314 311 308 308 308 301 302 301 298 299 294 285 275 268 263 257 247 237 233 226 222 222 216 211 211 210 213 213 210 211 212 211 213 211
319 321 321 321 323 324 324 323 321 314 312 309 311 310 306 307 306 303 302 293 286 279 273 267 254 245 238 234 227 221 219 214 211 208 208 210 212 212 210 210 210 209 212
320 321 321 320 322 322 322 322 318 316 313 311 313 311 309 309 308 306 303 295 291 283 277 266 256 247 240 233 225 220 217 211 206 208 205 207 210 211 208 208 210 211 213
319 320 320 321 321 321 322 322 317 316 314 314 314 312 311 311 310 312 305 300 295 287 280 268 257 248 239 229 221 217 213 207 204 206 203 205 208 210 207 208 211 212 213
318 319 319 320 320 320 321 321 318 317 315 317 316 311 311 312 310 313 304 302 297 292 283 270 256 246 237 226 218 213 208 204 201 202 200 202 205 207 205 207 208 208 213
317 316 317 319 319 319 320 320 318 316 316 315 314 312 314 312 312 312 304 302 304 297 285 268 253 242 231 220 211 204 202 201 201 199 198 199 203 205 202 206 206 209 213
Height
10600 10585 10569 10558 10546 10536 10527 10518 10507 10496 10486 10474 10462 10450 10442 10436 10430 10428 10430 10437 10449 10468 10489 10506 10530 10551 10568 10586 10606 10626 10643 10659 10672 10683 10687 10697 10704 10714 10722 10732 10740 10749 10755
10591 10581 10569 10552 10537 10526 10517 10506 10499 10488 10478 10469 10458 10448 10436 10432 10426 10422 10424 10430 10438 10454 10475 10494 10516 10537 10553 10573 10593 10610 10627 10641 10656 10668 10672 10685 10691 10701 10710 10720 10729 10738 10746
10583 10570 10556 10545 10533 10520 10507 10495 10486 10478 10472 10463 10454 10444 10434 10426 10422 10416 10416 10422 10430 10442 10461 10481 10501 10523 10539 10557 10576 10593 10611 10627 10641 10650 10662 10672 10682 10693 10701 10707 10719 10728 10736
10572 10560 10548 10535 10521 10509 10498 10488 10476 10465 10458 10453 10447 10439 10430 10420 10416 10411 10408 10410 10419 10430 10446 10465 10487 10506 10524 10539 10557 10576 10594 10610 10624 10635 10648 10658 10663 10675 10685 10694 10707 10718 10726
10566 10553 10536 10522 10510 10497 10485 10475 10464 10457 10449 10442 10435 10430 10422 10415 10408 10405 10402 10402 10407 10418 10433 10452 10471 10492 10508 10523 10539 10558 10579 10592 10606 10620 10631 10638 10651 10661 10673 10683 10697 10707 10717
10555 10541 10525 10512 10497 10486 10476 10465 10456 10444 10436 10428 10420 10417 10413 10406 10399 10395 10394 10393 10397 10408 10421 10435 10455 10472 10488 10507 10525 10542 10559 10575 10589 10604 10613 10622 10637 10650 10664 10674 10686 10696 10704
10545 10530 10514 10498 10484 10473 10463 10453 10442 10433 10424 10417 10407 10401 10399 10395 10390 10384 10382 10384 10386 10396 10407 10421 10440 10454 10470 10488 10506 10524 10540 10557 10573 10587 10596 10609 10624 10636 10651 10661 10671 10682 10691
10529 10514 10502 10488 10475 10461 10447 10438 10427 10417 10409 10401 10394 10387 10381 10380 10377 10373 10370 10370 10373 10379 10389 10406 10422 10440 10453 10467 10484 10504 10522 10538 10553 10569 10583 10593 10608 10622 10637 10647 10658 10666 10677
10509 10496 10484 10469 10458 10445 10432 10419 10408 10400 10391 10384 10377 10369 10365 10361 10360 10359 10357 10356 10358 10362 10370 10382 10397 10418 10433 10446 10462 10481 10499 10517 10532 10549 10565 10577 10590 10606 10619 10631 10646 10656 10667
10489 10477 10464 10451 10437 10424 10410 10397 10386 10378 10371 10363 10356 10352 10347 10343 10340 10341 10343 10341 10342 10346 10351 10361 10375 10391 10413 10426 10441 10458 10477 10495 10512 10527 10543 10558 10572 10587 10602 10619 10633 10643 10653
10473 10460 10446 10432 10419 10408 10394 10379 10366 10356 10350 10343 10337 10333 10328 10324 10322 10320 10324 10325 10326 10327 10331 10339 10350 10367 10383 10405 10417 10438 10454 10474 10491 10508 10524 10538 10551 10570 10588 10603 10617 10629 10641
10456 10442 10430 10416 10402 10388 10373 10357 10346 10335 10329 10322 10317 10312 10308 10304 10301 10302 10302 10306 10308 10311 10312 10317 10327 10341 10355 10374 10397 10413 10432 10450 10468 10486 10505 10517 10531 10551 10571 10588 10603 10616 10627
10445 10430 10414 10398 10383 10369 10354 10339 10324 10316 10307 10298 10294 10289 10286 10283 10280 10281 10283 10285 10288 10290 10294 10299 10302 10312 10328 10345 10363 10383 10406 10423 10442 10463 10484 10494 10511 10532 10552 10570 10585 10600 10611
10431 10417 10401 10384 10367 10352 10338 10326 10311 10298 10287 10277 10271 10266 10263 10261 10259 10260 10262 10265 10264 10267 10272 10275 10279 10287 10299 10316 10335 10352 10369 10390 10411 10435 10456 10474 10490 10512 10535 10554 10568 10582 10595
10414 10397 10380 10364 10350 10335 10320 10305 10292 10279 10268 10259 10252 10245 10242 10240 10240 10240 10241 10242 10242 10242 10243 10250 10253 10261 10273 10286 10303 10318 10339 10357 10377 10400 10426 10449 10469 10490 10512 10534 10549 10566 10576
10391 10376 10360 10343 10330 10314 10301 10285 10273 10260 10250 10241 10234 10228 10223 10220 10220 10220 10219 10218 10218 10218 10219 10217 10228 10235 10244 10252 10265 10280 10298 10324 10349 10367 10396 10420 10442 10466 10490 10516 10532 10545 10560
10370 10357 10340 10322 10309 10293 10278 10266 10255 10242 10230 10222 10215 10210 10205 10200 10199 10198 10196 10193 10194 10191 10190 10192 10196 10205 10213 10214 10227 10245 10266 10291 10313 10339 10367 10387 10420 10443 10469 10495 10514 10534 10553
10347 10331 10315 10298 10285 10271 10255 10245 10235 10224 10214 10205 10198 10192 10186 10181 10179 10174 10170 10168 10168 10163 10161 10162 10165 10169 10175 10184 10194 10211 10234 10261 10290 10312 10340 10363 10396 10422 10449 10474 10498 10521 10535
10323 10306 10291 10276 10264 10251 10238 10228 10216 10206 10196 10188 10180 10174 10168 10163 10159 10151 10146 10144 10140 10135 10133 10131 10132 10137 10138 10145 10156 10170 10196 10224 10257 10285 10314 10344 10376 10403 10431 10453 10480 10501 10519
10301 10285 10270 10256 10247 10234 10222 10211 10199 10187 10178 10169 10162 10156 10150 10144 10138 10127 10121 10120 10113 10108 10106 10101 10100 10104 10105 10112 10124 10135 10158 10188 10220 10258 10291 10321 10357 10382 10408 10435 10459 10485 10505
10279 10268 10252 10240 10230 10217 10204 10193 10181 10170 10160 10151 10144 10137 10130 10123 10115 10105 10099 10093 10087 10083 10078 10075 10073 10074 10077 10083 10096 10111 10131 10159 10185 10217 10258 10300 10335 10360 10390 10417 10441 10470 10486
10258 10245 10231 10217 10208 10198 10188 10175 10164 10152 10142 10133 10125 10118 10109 10101 10092 10083 10078 10070 10064 10058 10052 10050 10048 10048 10053 10060 10073 10088 10105 10126 10154 10184 10228 10272 10308 10341 10369 10397 10427 10452 10470
10236 10226 10213 10200 10190 10180 10173 10160 10147 10136 10125 10115 10108 10101 10090 10081 10071 10064 10057 10048 10043 10035 10030 10027 10025 10026 10030 10038 10050 10064 10081 10103 10128 10155 10198 10241 10281 10315 10343 10374 10403 10423 10450
10217 10206 10193 10181 10172 10160 10151 10143 10132 10119 10110 10100 10092 10084 10074 10064 10053 10045 10036 10029 10024 10016 10010 10008 10006 10008 10012 10020 10030 10043 10061 10083 10105 10132 10168 10212 10257 10293 10328 10353 10375 10402 10432
10196 10184 10173 10164 10155 10143 10133 10125 10115 10105 10094 10085 10077 10069 10060 10050 10038 10030 10021 10014 10007 10000 9994 9992 9991 9992 9996 10005 10015 10028 10044 10066 10089 10119 10151 10190 10235 10267 10302 10330 10357 10388 10414
10177 10166 10155 10148 10138 10127 10117 10108 10100 10091 10082 10073 10066 10054 10046 10036 10027 10016 10006 10003 9992 9984 9980 9979 9978 9979 9983 9991 10001 10014 10031 10049 10069 10097 10132 10173 10219 10256 10289 10317 10350 10377 10398